星链-4027 (STARLINK-4027 )

导读

STARLINK-4027是美国太空探索技术公司(SpaceX)星链卫星互联网项目的成员,于2022年5月14日发射入轨。它属于星链组网的低轨通信卫星,运行在近地轨道,为全球提供低延迟宽带互联网服务,是星链大规模星座建设中补充组网的一颗卫星,助力星链实现全球覆盖的目标。

基本信息
目录编号:
52601
目录名称:
STARLINK-4027
国际标识:
2022-052D
轨道中心:
EARTH
卫星名称:
星链-4027
卫星全名:
星链-4027 (STARLINK-4027 )
卫星状态:
在轨 (已飞行1574 天)
发射日期:
2022-05-14 UTC
国别 :
美国 (US)
星等 :
--
轨道信息
数据来源 国际轨道数据
星历时间: 2026-09-03T21:24:14+0800
16小时前
查看轨道信息
半长轴: 6837.881km
偏心率: 0.0001005
轨道倾角: 53.161°
近地点辐角 96.071°
升交点赤经 194.863°
平近点角 264.040°
近地点: 459.056km
远地点: 460.432km
周期: 93.787分钟
每日圈数: 15.353964
详细信息
固有亮度:
5
最大亮度:
2.5
卫星平台:
Starlink v1.5
覆盖范围:
全球
运营商:
太空探索技术公司
运营商所在国:
美国
制造商(研发单位):
太空探索技术公司
制造商所在国:
美国
使用方式:
暂无
卫星简介
星链(Starlink)计划是由太空探索技术公司(SpaceX)提出的一个巨型低轨卫星互联网星座项目,计划在2019年至2024年间在太空搭建由约1.2万颗卫星组成的“星链”网络,其中1584颗将部署在地球上空550千米处的近地轨道,并从2020年开始工作。该卫星仍在工作。
2D轨道图
3D轨道图
轨道高度分析图
轨道倾角分析图
轨道综合分析图
查看轨道综合分析图